WetterOnline ( https://www.wetteronline.de )

Wetter aktuell Ostrava

Aktuelles Wetter: Ostrava (260m)

6-stündlich | Neueste Meldungen
Ortszeit Temperatur Wetter
Di, 22.10. 14:00 20.2° C leicht bewölkt
Di, 22.10. 8:00 7.8° C leicht bewölkt
Di, 22.10. 2:00 11.0° C wolkenlos
Mo, 21.10. 20:00 16.2° C leicht bewölkt
Mo, 21.10. 14:00 21.8° C leicht bewölkt
Mo, 21.10. 8:00 9.3° C leicht bewölkt
Mo, 21.10. 2:00 11.0° C leicht bewölkt
So, 20.10. 20:00 15.3° C leicht bewölkt
Ortszeit Temperatur Wetter
Di, 22.10. 18:30 16° C -
Di, 22.10. 18:00 17.2° C leicht bewölkt
Di, 22.10. 17:30 19° C -
Di, 22.10. 17:00 19.9° C leicht bewölkt
Di, 22.10. 16:30 20° C -
Di, 22.10. 16:00 21.0° C leicht bewölkt
Di, 22.10. 15:30 21° C -
Di, 22.10. 15:00 20.7° C leicht bewölkt
Ortszeit Relative Feuchte Sichtweite
Di, 22.10. 14:00 67% 15 km
Di, 22.10. 8:00 97% 2.5 km
Di, 22.10. 2:00 92% 8 km
Mo, 21.10. 20:00 83% 15 km
Mo, 21.10. 14:00 61% 30 km
Mo, 21.10. 8:00 94% 25 km
Mo, 21.10. 2:00 94% 25 km
So, 20.10. 20:00 83% 25 km
Ortszeit Relative Feuchte Sichtweite
Di, 22.10. 18:30 88% >10 km
Di, 22.10. 18:00 82% 12 km
Di, 22.10. 17:30 73% >10 km
Di, 22.10. 17:00 70% 18 km
Di, 22.10. 16:30 68% >10 km
Di, 22.10. 16:00 66% 15 km
Di, 22.10. 15:30 64% >10 km
Di, 22.10. 15:00 65% 15 km
Ortszeit Niederschlagsmenge Niederschlagsart
Di, 22.10. 14:00 0.0 l/m2 in 6 Std. -
Di, 22.10. 8:00 0.0 l/m2 in 12 Std. Nebel
Di, 22.10. 2:00 0.0 l/m2 in 6 Std. -
Mo, 21.10. 20:00 0.0 l/m2 in 12 Std. -
Mo, 21.10. 14:00 0.0 l/m2 in 6 Std. -
Mo, 21.10. 8:00 0.0 l/m2 in 12 Std. -
Mo, 21.10. 2:00 0.0 l/m2 in 6 Std. -
So, 20.10. 20:00 0.0 l/m2 in 12 Std. -
Ortszeit Niederschlagsmenge Niederschlagsart
Di, 22.10. 18:30 keine Meldung -
Di, 22.10. 18:00 0.0 l/m2 in 1 Std. -
Di, 22.10. 17:30 keine Meldung -
Di, 22.10. 17:00 0.0 l/m2 in 1 Std. -
Di, 22.10. 16:30 keine Meldung -
Di, 22.10. 16:00 0.0 l/m2 in 1 Std. -
Di, 22.10. 15:30 keine Meldung -
Di, 22.10. 15:00 0.0 l/m2 in 1 Std. -
Ortszeit Stärke Spitze Richtung
km/h Bft. km/h Grad Sektor
Di, 22.10. 14:00 7 2 - uml. uml.
Di, 22.10. 8:00 0 0 - - -
Di, 22.10. 2:00 11 2 - 200° S
Mo, 21.10. 20:00 14 3 - 220° SW
Mo, 21.10. 14:00 14 3 - 270° W
Mo, 21.10. 8:00 7 2 - 220° SW
Mo, 21.10. 2:00 4 1 - - -
So, 20.10. 20:00 4 1 - 50° NO
Ortszeit Stärke Spitze Richtung
km/h Bft. km/h Grad Sektor
Di, 22.10. 18:30 0 0 - - -
Di, 22.10. 18:00 4 1 - 30° NO
Di, 22.10. 17:30 6 1 - 70° O
Di, 22.10. 17:00 7 2 - 40° NO
Di, 22.10. 16:30 4 1 - 60° NO
Di, 22.10. 16:00 4 1 - 50° NO
Di, 22.10. 15:30 4 1 - uml. uml.
Di, 22.10. 15:00 7 2 - 100° O
Ortszeit Untergrenze Bedeckung Gattung
total tief tief mittel hoch
Di, 22.10. 14:00 6900 m 4/8 0/8 - - Ci
Di, 22.10. 8:00 90 m 4/8 1/8 St - Ci
Di, 22.10. 2:00 - 0/8 0/8 - - -
Mo, 21.10. 20:00 6900 m 3/8 0/8 - - Ci
Mo, 21.10. 14:00 6900 m 3/8 0/8 - - Ci
Mo, 21.10. 8:00 3900 m 4/8 2/8 - Ac Ci
Mo, 21.10. 2:00 6900 m 7/8 7/8 - - Cs
So, 20.10. 20:00 6900 m 3/8 0/8 - - Ci
Ortszeit Bedeckungsgrad in Achtel und Wolkenuntergrenze
Di, 22.10. 18:30 keine Wolken(unter 1500 m)
Di, 22.10. 18:00 4(6900m)
Di, 22.10. 17:30 keine Wolken(unter 1500 m)
Di, 22.10. 17:00 4(6900m)
Di, 22.10. 16:30 keine Wolken(unter 1500 m)
Di, 22.10. 16:00 4(6900m)
Di, 22.10. 15:30 keine Wolken(unter 1500 m)
Di, 22.10. 15:00 4(6900m)
Ortszeit Luftdruck NN (hPa) Tendenz (hPa in 3 Std.)
Di, 22.10. 14:00 1023 - 0,8
Di, 22.10. 8:00 1025 + 1,2
Di, 22.10. 2:00 1023 + 0,4
Mo, 21.10. 20:00 1021 + 1,2
Mo, 21.10. 14:00 1019 + 0,1
Mo, 21.10. 8:00 1018 + 1,1
Mo, 21.10. 2:00 1016 0,0
So, 20.10. 20:00 1015 + 0,1
Ortszeit Luftdruck NN (hPa) Tendenz (hPa in 3 Std.)
Di, 22.10. 18:30 1023 keine Meldung
Di, 22.10. 18:00 1023 - 0,2
Di, 22.10. 17:30 1022 keine Meldung
Di, 22.10. 17:00 1022 - 0,5
Di, 22.10. 16:30 1022 keine Meldung
Di, 22.10. 16:00 1022 - 0,6
Di, 22.10. 15:30 1023 keine Meldung
Di, 22.10. 15:00 1023 - 0,7
Ortszeit Schneehöhe (cm)
Di, 22.10. 14:00 -
Di, 22.10. 8:00 -
Di, 22.10. 2:00 -
Mo, 21.10. 20:00 -
Mo, 21.10. 14:00 -
Mo, 21.10. 8:00 -
Mo, 21.10. 2:00 -
So, 20.10. 20:00 -
Ortszeit Schneehöhe (cm)
Di, 22.10. 18:30 -
Di, 22.10. 18:00 -
Di, 22.10. 17:30 -
Di, 22.10. 17:00 -
Di, 22.10. 16:30 -
Di, 22.10. 16:00 -
Di, 22.10. 15:30 -
Di, 22.10. 15:00 -
Link zu dieser Seite / Seite empfehlen

Das Wetter in ...